Regional Weather Roundup
Issued by NWS Little Rock, AR

Home | Current Version | Previous Version | Text Only | Print | Product List | Glossary On
Versions: 1 2 3 4 5 6 7 8 9 10 11 12 13 14 15 16 17 18 19 20 21 22 23 24 25 26 27 28 29 30 31 32 33 34 35 36 37 38 39 40 41 42 43 44 45 46 47 48 49 50
000
ASUS44 KLZK 052305
RWRLZK

WEATHER ROUNDUP FOR ARKANSAS
NATIONAL WEATHER SERVICE LITTLE ROCK AR
500 PM CST FRI FEB 05 2016

NOTE: "FAIR" INDICATES FEW OR NO CLOUDS BELOW 12,000 FEET WITH NO
SIGNIFICANT WEATHER AND/OR OBSTRUCTIONS TO VISIBILITY.

ARZ001-003-010-029-060000-
NORTHWEST ARKANSAS

CITY           SKY/WX    TMP DP  RH WIND       PRES   REMARKS
FAYETTEVILLE   CLOUDY    48  13  24 SE6       30.31F
FORT SMITH     CLEAR     54   9  16 VRB5      30.32F
HARRISON       CLEAR     50  13  22 W3        30.31S
BENTONVILLE    CLEAR     48  12  23 SW5       30.31F
ROGERS         CLEAR     48  16  27 S12       30.31F
SILOAM SPGS    CLEAR     48  16  27 S7        30.31F
HIGHFILL       CLEAR     49  15  25 SW7       30.30F
SPRINGDALE     CLEAR     48  14  25 SW9       30.32F
$$

ARZ004-005-016-060000-
NORTH CENTRAL ARKANSAS

CITY           SKY/WX    TMP DP  RH WIND       PRES   REMARKS
BATESVILLE     CLEAR     52  16  24 SW7       30.36S
FLIPPIN        CLEAR     52  14  22 S5        30.30S
MTN HOME       CLEAR     51  13  21 SW3       30.31S
$$

ARZ040-041-060000-
WEST CENTRAL ARKANSAS

CITY           SKY/WX    TMP DP  RH WIND       PRES   REMARKS
MENA           CLEAR     52  14  22 S3        30.34S
MOUNT IDA      CLEAR     52  13  21 VRB5      30.32F
$$

ARZ009-017-025-026-028-060000-
NORTHEAST ARKANSAS

CITY           SKY/WX    TMP DP  RH WIND       PRES   REMARKS
CORNING        FAIR      50  28  43 S9        30.36S
JONESBORO      CLOUDY    48  24  39 S10       30.38S
NEWPORT        PTCLDY    49  27  42 S12       30.38F
WALNUT RIDGE   CLEAR     52  25  35 S12       30.36S
BLYTHEVILLE    CLOUDY    51  25  36 SW5       30.39S
$$

ARZ022-023-033-042-044-060000-
CENTRAL ARKANSAS

CITY           SKY/WX    TMP DP  RH WIND       PRES   REMARKS
LITTLE ROCK    MOCLDY    52  15  23 S8        30.38F
N LITTLE ROCK  MOCLDY    51  15  24 S7        30.38F
JACKSONVILLE   PTCLDY    52  16  24 SE7       30.36F
SEARCY         PTCLDY    52  21  30 S12       30.39S
HOT SPRINGS    CLEAR     52  15  23 VRB5      30.36F
RUSSELLVILLE   CLEAR     53  10  18 S5        30.34F
CLINTON        FAIR      52  16  24 CALM      30.36S
$$

ARZ036-060000-
EAST ARKANSAS

CITY           SKY/WX    TMP DP  RH WIND       PRES   REMARKS
WEST MEMPHIS   HAZE      48  27  44 S7        30.39F VSB 1/4
$$

ARZ050-053-066-070-073-060000-
SOUTHWEST ARKANSAS

CITY           SKY/WX    TMP DP  RH WIND       PRES   REMARKS
ARKADELPHIA    FAIR      53  23  31 CALM      30.37F
CAMDEN         PTCLDY    54   9  16 SE5       30.37F
TEXARKANA      CLEAR     53  15  22 SE8       30.35F
EL DORADO      PTCLDY    53  14  21 E3        30.36F
DE QUEEN       CLEAR     53  18  25 S5        30.34F
$$

ARZ056-057-069-060000-
SOUTHEAST ARKANSAS

CITY           SKY/WX    TMP DP  RH WIND       PRES   REMARKS
PINE BLUFF     CLOUDY    50  27  40 E8        30.38F
STUTTGART      MOCLDY    52  16  24 SE3       30.40F
MONTICELLO     PTCLDY    52  19  27 SE8       30.38F

$$





USA.gov is the U.S. government's official web portal to all federal, state and local government web resources and services.